TimeEST,TemperatureF,Dew PointF,Humidity,Sea Level PressureIn,VisibilityMPH,Wind Direction,Wind SpeedMPH,Gust SpeedMPH,PrecipitationIn,Events,Conditions,WindDirDegrees,DateUTC
12:14 AM,35.6,32.0,87,30.28,10.0,SE,6.9,-,N/A,,Clear,130,2012-12-07 05:14:00
12:35 AM,35.6,32.0,87,30.26,10.0,SE,6.9,-,N/A,,Clear,130,2012-12-07 05:35:00
12:57 AM,35.6,32.0,87,30.26,10.0,SE,5.8,-,N/A,,Clear,130,2012-12-07 05:57:00
1:18 AM,35.6,32.0,87,30.25,10.0,SE,6.9,-,N/A,,Clear,130,2012-12-07 06:18:00
1:40 AM,37.4,32.0,81,30.25,10.0,SE,4.6,-,N/A,,Scattered Clouds,140,2012-12-07 06:40:00
2:01 AM,37.4,32.0,81,30.24,10.0,SE,4.6,-,N/A,,Mostly Cloudy,140,2012-12-07 07:01:00
2:22 AM,37.4,33.8,87,30.23,10.0,SE,4.6,-,N/A,,Scattered Clouds,140,2012-12-07 07:22:00
2:43 AM,37.4,33.8,87,30.23,10.0,SE,5.8,-,N/A,,Clear,140,2012-12-07 07:43:00
3:05 AM,37.4,33.8,87,30.23,10.0,SE,4.6,-,N/A,,Scattered Clouds,140,2012-12-07 08:05:00
3:26 AM,37.4,33.8,87,30.22,10.0,SSE,4.6,-,N/A,,Scattered Clouds,150,2012-12-07 08:26:00
3:47 AM,37.4,33.8,87,30.20,10.0,SE,4.6,-,N/A,,Mostly Cloudy,130,2012-12-07 08:47:00
4:09 AM,37.4,33.8,87,30.21,10.0,SE,4.6,-,N/A,,Mostly Cloudy,140,2012-12-07 09:09:00
4:30 AM,37.4,32.0,81,30.21,10.0,Calm,Calm,-,N/A,,Scattered Clouds,0,2012-12-07 09:30:00
4:51 AM,37.4,32.0,81,30.20,10.0,East,3.5,-,N/A,,Scattered Clouds,100,2012-12-07 09:51:00
5:12 AM,37.4,33.8,87,30.20,10.0,SE,4.6,-,N/A,,Scattered Clouds,130,2012-12-07 10:12:00
5:34 AM,39.2,33.8,81,30.19,10.0,ESE,4.6,-,N/A,,Overcast,120,2012-12-07 10:34:00
5:55 AM,39.2,33.8,81,30.19,10.0,SE,5.8,-,N/A,,Overcast,130,2012-12-07 10:55:00
6:16 AM,39.2,32.0,75,30.20,10.0,SE,6.9,-,N/A,,Overcast,140,2012-12-07 11:16:00
6:38 AM,39.2,33.8,81,30.20,10.0,SSE,4.6,-,N/A,,Overcast,150,2012-12-07 11:38:00
6:59 AM,41.0,33.8,76,30.20,10.0,SSE,4.6,-,N/A,,Overcast,160,2012-12-07 11:59:00
7:20 AM,41.0,33.8,76,30.20,10.0,South,4.6,-,N/A,,Overcast,170,2012-12-07 12:20:00
7:41 AM,41.0,35.6,81,30.20,10.0,SSE,4.6,-,N/A,,Overcast,160,2012-12-07 12:41:00
8:03 AM,41.0,35.6,81,30.19,10.0,SSE,5.8,-,N/A,,Overcast,160,2012-12-07 13:03:00
8:24 AM,41.0,37.4,87,30.19,7.0,SSE,5.8,-,N/A,,Overcast,160,2012-12-07 13:24:00
8:45 AM,41.0,39.2,93,30.19,7.0,SSE,5.8,-,N/A,,Overcast,150,2012-12-07 13:45:00
9:06 AM,41.0,39.2,93,30.19,10.0,SSE,5.8,-,N/A,,Overcast,160,2012-12-07 14:06:00
9:49 AM,41.0,41.0,100,30.19,10.0,SSE,4.6,-,N/A,,Overcast,160,2012-12-07 14:49:00
10:10 AM,41.0,41.0,100,30.19,10.0,SSE,3.5,-,N/A,,Overcast,150,2012-12-07 15:10:00
10:31 AM,42.8,41.0,93,30.19,10.0,SSE,3.5,-,N/A,,Overcast,150,2012-12-07 15:31:00
11:14 AM,44.6,42.8,93,30.15,10.0,SSE,6.9,-,N/A,,Overcast,160,2012-12-07 16:14:00
11:35 AM,44.6,42.8,93,30.14,10.0,SSE,9.2,-,N/A,,Overcast,150,2012-12-07 16:35:00
11:56 AM,44.6,42.8,93,30.12,10.0,South,8.1,-,N/A,,Overcast,170,2012-12-07 16:56:00
12:17 PM,46.4,42.8,87,30.11,10.0,SSE,6.9,-,N/A,,Overcast,160,2012-12-07 17:17:00
12:39 PM,46.4,42.8,87,30.11,10.0,South,8.1,-,N/A,,Overcast,170,2012-12-07 17:39:00
1:00 PM,46.4,42.8,87,30.10,10.0,South,6.9,-,N/A,,Mostly Cloudy,170,2012-12-07 18:00:00
1:21 PM,46.4,42.8,87,30.09,10.0,South,6.9,-,N/A,,Mostly Cloudy,170,2012-12-07 18:21:00
1:42 PM,46.4,42.8,87,30.08,10.0,SSE,8.1,-,N/A,,Mostly Cloudy,160,2012-12-07 18:42:00
2:04 PM,46.4,42.8,87,30.08,10.0,South,5.8,-,N/A,,Scattered Clouds,170,2012-12-07 19:04:00
2:25 PM,46.4,42.8,87,30.08,10.0,SSE,5.8,-,N/A,,Scattered Clouds,160,2012-12-07 19:25:00
2:46 PM,46.4,42.8,87,30.07,10.0,SSE,6.9,-,N/A,,Scattered Clouds,160,2012-12-07 19:46:00
3:07 PM,46.4,42.8,87,30.07,10.0,SSE,8.1,-,N/A,,Scattered Clouds,150,2012-12-07 20:07:00
3:29 PM,46.4,44.6,93,30.07,10.0,SSE,8.1,-,N/A,,Mostly Cloudy,150,2012-12-07 20:29:00
3:50 PM,46.4,44.6,93,30.07,10.0,SSE,6.9,-,N/A,,Overcast,160,2012-12-07 20:50:00
4:11 PM,46.4,44.6,93,30.06,10.0,SSE,4.6,-,N/A,,Mostly Cloudy,160,2012-12-07 21:11:00
4:32 PM,48.2,42.8,82,30.06,10.0,South,6.9,-,N/A,,Mostly Cloudy,170,2012-12-07 21:32:00
4:54 PM,48.2,42.8,82,30.07,10.0,SSE,5.8,-,N/A,,Mostly Cloudy,160,2012-12-07 21:54:00
5:15 PM,48.2,44.6,87,30.07,10.0,SSE,4.6,-,N/A,,Overcast,150,2012-12-07 22:15:00
5:36 PM,48.2,44.6,87,30.06,10.0,SSE,3.5,-,N/A,,Overcast,150,2012-12-07 22:36:00
5:57 PM,48.2,44.6,87,30.07,10.0,Calm,Calm,-,N/A,,Overcast,0,2012-12-07 22:57:00
6:19 PM,48.2,44.6,87,30.06,10.0,SE,5.8,-,N/A,,Overcast,140,2012-12-07 23:19:00
6:40 PM,48.2,44.6,87,30.06,10.0,SSE,3.5,-,N/A,,Mostly Cloudy,150,2012-12-07 23:40:00
7:01 PM,46.4,44.6,93,30.05,10.0,SSE,3.5,-,N/A,,Overcast,150,2012-12-08 00:01:00
7:22 PM,46.4,44.6,93,30.05,10.0,SSE,3.5,-,N/A,,Overcast,150,2012-12-08 00:22:00
7:44 PM,48.2,44.6,87,30.05,10.0,SE,3.5,-,N/A,,Overcast,140,2012-12-08 00:44:00
8:26 PM,46.4,46.4,100,30.05,10.0,Calm,Calm,-,N/A,,Overcast,0,2012-12-08 01:26:00
8:47 PM,46.4,46.4,100,30.04,5.0,SE,3.5,-,N/A,,Overcast,130,2012-12-08 01:47:00
9:09 PM,46.4,46.4,100,30.03,7.0,SE,3.5,-,N/A,,Overcast,130,2012-12-08 02:09:00
9:30 PM,46.4,46.4,100,30.03,4.0,Calm,Calm,-,N/A,,Overcast,0,2012-12-08 02:30:00
9:51 PM,46.4,46.4,100,30.02,1.8,Calm,Calm,-,N/A,,Overcast,0,2012-12-08 02:51:00
10:55 PM,46.4,46.4,100,30.01,1.0,Calm,Calm,-,N/A,,Overcast,0,2012-12-08 03:55:00
11:16 PM,46.4,46.4,100,30.00,1.0,Calm,Calm,-,N/A,,Overcast,0,2012-12-08 04:16:00
11:37 PM,46.4,46.4,100,29.99,2.5,ESE,6.9,-,N/A,,Overcast,120,2012-12-08 04:37:00
11:59 PM,46.4,46.4,100,29.97,2.0,SE,4.6,-,N/A,,Overcast,130,2012-12-08 04:59:00